Time,TemperatureF,DewpointF,PressureIn,WindDirection,WindDirectionDegrees,WindSpeedMPH,WindSpeedGustMPH,Humidity,HourlyPrecipIn,Conditions,Clouds,dailyrainin,SoftwareType,DateUTC
2013-03-08 00:04:00,55.1,55.0,-100.00,WSW,243,0.0,0.0,100,0.00,,,0.00,,2013-03-08 06:04:00,
2013-03-08 00:09:00,55.3,55.0,-100.00,WSW,243,0.0,0.0,100,0.00,,,0.00,,2013-03-08 06:09:00,
2013-03-08 00:19:00,57.1,57.0,-100.00,West,262,0.0,0.0,100,0.00,,,0.00,,2013-03-08 06:19:00,
2013-03-08 00:24:00,57.4,57.0,-100.00,West,265,0.0,0.0,100,0.00,,,0.00,,2013-03-08 06:24:00,
2013-03-08 00:29:00,57.6,57.0,-100.00,West,265,0.0,0.0,100,0.00,,,0.00,,2013-03-08 06:29:00,
2013-03-08 00:34:00,57.8,57.0,-100.00,WSW,254,0.0,0.0,100,0.00,,,0.00,,2013-03-08 06:34:00,
2013-03-08 00:39:00,57.8,57.0,-100.00,West,265,0.0,0.0,100,0.00,,,0.00,,2013-03-08 06:39:00,
2013-03-08 00:44:00,57.8,57.0,-100.00,West,259,0.0,0.0,100,0.00,,,0.00,,2013-03-08 06:44:00,
2013-03-08 00:49:00,57.8,57.0,-100.00,West,265,0.0,0.0,100,0.00,,,0.00,,2013-03-08 06:49:00,
2013-03-08 00:54:00,57.8,57.0,-100.00,West,265,0.0,0.0,100,0.00,,,0.00,,2013-03-08 06:54:00,
2013-03-08 00:59:00,57.8,57.0,-100.00,West,265,0.0,0.0,100,0.00,,,0.00,,2013-03-08 06:59:00,
2013-03-08 01:04:00,57.8,57.0,-100.00,West,265,0.0,0.0,100,0.00,,,0.00,,2013-03-08 07:04:00,
2013-03-08 01:09:00,57.8,57.0,-100.00,WSW,240,0.0,0.0,100,0.00,,,0.00,,2013-03-08 07:09:00,
2013-03-08 01:14:00,57.7,57.0,-100.00,West,265,0.0,0.0,100,0.00,,,0.00,,2013-03-08 07:14:00,
2013-03-08 01:19:00,57.6,57.0,-100.00,West,265,0.0,0.0,100,0.00,,,0.00,,2013-03-08 07:19:00,
2013-03-08 01:24:00,57.6,57.0,-100.00,West,265,0.0,0.0,100,0.00,,,0.00,,2013-03-08 07:24:00,
2013-03-08 01:29:00,57.5,57.0,-100.00,West,259,0.0,0.0,100,0.00,,,0.00,,2013-03-08 07:29:00,
2013-03-08 01:34:00,57.5,57.0,-100.00,West,262,0.0,0.0,100,0.00,,,0.00,,2013-03-08 07:34:00,
2013-03-08 01:39:00,57.5,57.0,-100.00,West,265,0.0,0.0,100,0.00,,,0.00,,2013-03-08 07:39:00,
2013-03-08 01:44:00,57.4,57.0,-100.00,West,262,0.0,0.0,100,0.00,,,0.00,,2013-03-08 07:44:00,
2013-03-08 01:49:00,57.3,57.0,-100.00,West,262,0.0,0.0,100,0.00,,,0.00,,2013-03-08 07:49:00,
2013-03-08 01:54:00,57.3,57.0,-100.00,West,262,0.0,0.0,100,0.00,,,0.00,,2013-03-08 07:54:00,
2013-03-08 01:59:00,57.3,57.0,-100.00,West,262,0.0,0.0,100,0.00,,,0.00,,2013-03-08 07:59:00,
2013-03-08 02:04:00,57.3,57.0,-100.00,WSW,257,0.0,0.0,100,0.00,,,0.00,,2013-03-08 08:04:00,
2013-03-08 02:09:00,57.2,57.0,-100.00,West,262,0.0,0.0,100,0.00,,,0.00,,2013-03-08 08:09:00,
2013-03-08 02:14:00,57.2,57.0,-100.00,WSW,257,0.0,0.0,100,0.00,,,0.00,,2013-03-08 08:14:00,
2013-03-08 02:19:00,57.1,57.0,-100.00,West,265,0.0,0.0,100,0.00,,,0.00,,2013-03-08 08:19:00,
2013-03-08 02:24:00,57.1,57.0,-100.00,West,262,0.0,0.0,100,0.00,,,0.00,,2013-03-08 08:24:00,
2013-03-08 02:29:00,57.0,57.0,-100.00,West,265,0.0,0.0,100,0.00,,,0.00,,2013-03-08 08:29:00,
2013-03-08 02:34:00,57.0,57.0,-100.00,WSW,257,0.0,0.0,100,0.00,,,0.00,,2013-03-08 08:34:00,
2013-03-08 02:39:00,57.0,57.0,-100.00,West,262,0.0,0.0,100,0.00,,,0.00,,2013-03-08 08:39:00,
2013-03-08 02:44:00,57.0,57.0,-100.00,West,259,0.0,0.0,100,0.00,,,0.00,,2013-03-08 08:44:00,
2013-03-08 02:49:00,57.0,57.0,-100.00,West,262,0.0,0.0,100,0.00,,,0.00,,2013-03-08 08:49:00,
2013-03-08 02:54:00,57.0,57.0,-100.00,WSW,251,0.0,0.0,100,0.00,,,0.00,,2013-03-08 08:54:00,
2013-03-08 02:59:00,57.0,57.0,-100.00,West,262,0.0,0.0,100,0.00,,,0.00,,2013-03-08 08:59:00,
2013-03-08 03:04:00,55.9,55.0,-100.00,WSW,243,0.0,0.0,100,0.00,,,0.00,,2013-03-08 09:04:00,
2013-03-08 03:09:00,55.9,55.0,-100.00,WSW,248,0.0,0.0,100,0.00,,,0.00,,2013-03-08 09:09:00,
2013-03-08 03:14:00,55.8,55.0,-100.00,WSW,248,0.0,0.0,100,0.00,,,0.00,,2013-03-08 09:14:00,
2013-03-08 03:19:00,55.7,55.0,-100.00,WSW,254,0.0,0.0,100,0.00,,,0.00,,2013-03-08 09:19:00,
2013-03-08 03:24:00,55.7,55.0,-100.00,WSW,254,0.0,0.0,100,0.00,,,0.00,,2013-03-08 09:24:00,
2013-03-08 03:29:00,55.6,55.0,-100.00,WSW,243,0.0,0.0,100,0.00,,,0.00,,2013-03-08 09:29:00,
2013-03-08 03:34:00,55.5,55.0,-100.00,WSW,249,0.0,0.0,100,0.00,,,0.00,,2013-03-08 09:34:00,
2013-03-08 03:39:00,55.4,55.0,-100.00,West,265,0.0,0.0,100,0.00,,,0.00,,2013-03-08 09:39:00,
2013-03-08 03:44:00,55.3,55.0,-100.00,WSW,243,0.0,0.0,100,0.00,,,0.00,,2013-03-08 09:44:00,
2013-03-08 03:49:00,55.3,55.0,-100.00,WSW,257,0.0,0.0,100,0.00,,,0.00,,2013-03-08 09:49:00,
2013-03-08 03:54:00,55.1,55.0,-100.00,WSW,257,0.0,0.0,100,0.00,,,0.00,,2013-03-08 09:54:00,
2013-03-08 03:59:00,55.1,55.0,-100.00,WSW,257,0.0,0.0,100,0.00,,,0.00,,2013-03-08 09:59:00,
2013-03-08 04:04:00,55.1,55.0,-100.00,WSW,257,0.0,0.0,100,0.00,,,0.00,,2013-03-08 10:04:00,
2013-03-08 04:09:00,55.1,55.0,-100.00,West,265,0.0,0.0,100,0.00,,,0.00,,2013-03-08 10:09:00,
2013-03-08 04:14:00,55.1,55.0,-100.00,West,265,0.0,0.0,100,0.00,,,0.00,,2013-03-08 10:14:00,
2013-03-08 04:19:00,55.0,55.0,-100.00,West,262,0.0,0.0,100,0.00,,,0.00,,2013-03-08 10:19:00,
2013-03-08 04:24:00,55.0,55.0,-100.00,West,265,0.0,0.0,100,0.00,,,0.00,,2013-03-08 10:24:00,
2013-03-08 04:29:00,55.0,55.0,-100.00,WSW,243,0.0,0.0,100,0.00,,,0.00,,2013-03-08 10:29:00,
2013-03-08 04:34:00,55.0,55.0,-100.00,West,265,0.0,0.0,100,0.00,,,0.00,,2013-03-08 10:34:00,
2013-03-08 04:39:00,55.0,55.0,-100.00,WSW,243,0.0,0.0,100,0.00,,,0.00,,2013-03-08 10:39:00,
2013-03-08 04:44:00,55.0,55.0,-100.00,WSW,251,0.0,0.0,100,0.00,,,0.00,,2013-03-08 10:44:00,
2013-03-08 04:49:00,55.0,55.0,-100.00,West,262,0.0,0.0,100,0.00,,,0.00,,2013-03-08 10:49:00,
2013-03-08 04:54:00,55.0,55.0,-100.00,West,265,0.0,0.0,100,0.00,,,0.00,,2013-03-08 10:54:00,
2013-03-08 04:59:00,55.0,55.0,-100.00,West,265,0.0,0.0,100,0.00,,,0.00,,2013-03-08 10:59:00,
2013-03-08 05:04:00,55.0,55.0,-100.00,WSW,257,0.0,0.0,100,0.00,,,0.00,,2013-03-08 11:04:00,
2013-03-08 05:09:00,55.0,55.0,-100.00,West,265,0.0,0.0,100,0.00,,,0.00,,2013-03-08 11:09:00,
2013-03-08 05:14:00,55.0,55.0,-100.00,WSW,243,0.0,0.0,100,0.00,,,0.00,,2013-03-08 11:14:00,
2013-03-08 05:19:00,55.0,55.0,-100.00,WSW,243,0.0,0.0,100,0.00,,,0.00,,2013-03-08 11:19:00,
2013-03-08 05:24:00,55.0,55.0,-100.00,WSW,251,0.0,0.0,100,0.00,,,0.00,,2013-03-08 11:24:00,
2013-03-08 05:29:00,55.0,55.0,-100.00,WSW,249,0.0,0.0,100,0.00,,,0.00,,2013-03-08 11:29:00,
2013-03-08 05:34:00,53.9,55.0,-100.00,WSW,254,0.0,0.0,100,0.00,,,0.00,,2013-03-08 11:34:00,
2013-03-08 05:39:00,53.9,53.0,-100.00,West,262,0.0,0.0,100,0.00,,,0.00,,2013-03-08 11:39:00,
2013-03-08 05:44:00,53.9,53.0,-100.00,West,265,0.0,0.0,100,0.00,,,0.00,,2013-03-08 11:44:00,
2013-03-08 05:49:00,55.0,55.0,-100.00,West,265,0.0,0.0,100,0.00,,,0.00,,2013-03-08 11:49:00,
2013-03-08 05:54:00,53.9,53.0,-100.00,WSW,243,0.0,0.0,100,0.00,,,0.00,,2013-03-08 11:54:00,
2013-03-08 05:59:00,53.9,53.0,-100.00,WSW,248,0.0,0.0,100,0.00,,,0.00,,2013-03-08 11:59:00,
2013-03-08 06:04:00,53.8,53.0,-100.00,West,265,0.0,0.0,100,0.00,,,0.00,,2013-03-08 12:04:00,
2013-03-08 06:09:00,53.8,53.0,-100.00,WSW,248,0.0,0.0,100,0.00,,,0.00,,2013-03-08 12:09:00,
2013-03-08 06:14:00,53.8,53.0,-100.00,West,265,0.0,0.0,100,0.00,,,0.00,,2013-03-08 12:14:00,
2013-03-08 06:19:00,53.7,53.0,-100.00,WSW,254,0.0,0.0,100,0.00,,,0.00,,2013-03-08 12:19:00,
2013-03-08 06:24:00,53.7,53.0,-100.00,WSW,243,0.0,0.0,100,0.00,,,0.00,,2013-03-08 12:24:00,
2013-03-08 06:29:00,53.7,53.0,-100.00,West,265,0.0,0.0,100,0.00,,,0.00,,2013-03-08 12:29:00,
2013-03-08 06:34:00,53.6,53.0,-100.00,SW,229,0.0,0.0,100,0.00,,,0.00,,2013-03-08 12:34:00,
2013-03-08 06:39:00,53.6,53.0,-100.00,SW,226,0.0,0.0,100,0.00,,,0.00,,2013-03-08 12:39:00,
2013-03-08 06:44:00,53.6,53.0,-100.00,SW,234,0.0,0.0,100,0.00,,,0.00,,2013-03-08 12:44:00,
2013-03-08 06:49:00,53.6,53.0,-100.00,West,265,0.0,0.0,100,0.00,,,0.00,,2013-03-08 12:49:00,
2013-03-08 06:54:00,53.6,53.0,-100.00,West,265,0.0,0.0,100,0.00,,,0.00,,2013-03-08 12:54:00,
2013-03-08 06:59:00,53.5,53.0,-100.00,West,265,0.0,0.0,100,0.00,,,0.00,,2013-03-08 12:59:00,
2013-03-08 07:04:00,53.5,53.0,-100.00,WSW,251,0.0,0.0,100,0.00,,,0.00,,2013-03-08 13:04:00,
2013-03-08 07:09:00,53.5,53.0,-100.00,WSW,237,0.0,0.0,100,0.00,,,0.00,,2013-03-08 13:09:00,
2013-03-08 07:14:00,53.5,53.0,-100.00,WSW,248,0.0,0.0,100,0.00,,,0.00,,2013-03-08 13:14:00,
2013-03-08 07:19:00,53.5,53.0,-100.00,WSW,240,0.0,0.0,100,0.00,,,0.00,,2013-03-08 13:19:00,
2013-03-08 07:24:00,53.5,53.0,-100.00,West,265,0.0,0.0,100,0.00,,,0.00,,2013-03-08 13:24:00,
2013-03-08 07:29:00,53.5,53.0,-100.00,WSW,254,0.0,0.0,100,0.00,,,0.00,,2013-03-08 13:29:00,
2013-03-08 07:34:00,53.4,53.0,-100.00,West,265,0.0,0.0,100,0.00,,,0.00,,2013-03-08 13:34:00,
2013-03-08 07:39:00,53.4,53.0,-100.00,West,265,0.0,0.0,100,0.00,,,0.00,,2013-03-08 13:39:00,
2013-03-08 07:44:00,53.4,53.0,-100.00,West,265,0.0,0.0,100,0.00,,,0.00,,2013-03-08 13:44:00,
2013-03-08 07:49:00,53.5,53.0,-100.00,WSW,243,0.0,0.0,100,0.00,,,0.00,,2013-03-08 13:49:00,
2013-03-08 07:54:00,53.4,53.0,-100.00,WSW,243,0.0,0.0,100,0.00,,,0.00,,2013-03-08 13:54:00,
2013-03-08 07:59:00,53.3,53.0,-100.00,SW,229,0.0,0.0,100,0.00,,,0.00,,2013-03-08 13:59:00,
2013-03-08 08:04:00,53.3,53.0,-100.00,SW,234,0.0,0.0,100,0.00,,,0.00,,2013-03-08 14:04:00,
2013-03-08 08:14:00,53.3,53.0,-100.00,WSW,243,0.0,0.0,100,0.00,,,0.00,,2013-03-08 14:14:00,
2013-03-08 08:24:00,53.4,53.0,-100.00,SW,220,0.0,0.0,100,0.00,,,0.00,,2013-03-08 14:24:00,
2013-03-08 08:29:00,53.4,53.0,-100.00,SW,220,0.0,0.0,100,0.00,,,0.00,,2013-03-08 14:29:00,
2013-03-08 08:34:00,53.5,53.0,-100.00,WSW,243,0.0,0.0,100,0.00,,,0.00,,2013-03-08 14:34:00,
2013-03-08 08:44:00,53.6,53.0,-100.00,WSW,243,0.0,0.0,100,0.00,,,0.00,,2013-03-08 14:44:00,
2013-03-08 08:49:00,53.6,53.0,-100.00,WSW,243,0.0,0.0,100,0.00,,,0.00,,2013-03-08 14:49:00,
2013-03-08 08:54:00,53.5,53.0,-100.00,SW,220,0.0,0.0,100,0.00,,,0.00,,2013-03-08 14:54:00,
2013-03-08 08:59:00,53.5,53.0,-100.00,SW,220,0.0,0.0,100,0.00,,,0.00,,2013-03-08 14:59:00,
2013-03-08 09:04:00,53.5,53.0,-100.00,SW,234,0.0,0.0,100,0.00,,,0.00,,2013-03-08 15:04:00,
2013-03-08 09:09:00,53.5,53.0,-100.00,WSW,243,0.0,0.0,100,0.00,,,0.00,,2013-03-08 15:09:00,
2013-03-08 09:14:00,53.5,53.0,-100.00,WSW,243,0.0,0.0,100,0.00,,,0.00,,2013-03-08 15:14:00,
2013-03-08 09:19:00,53.4,53.0,-100.00,WSW,243,0.0,0.0,100,0.00,,,0.00,,2013-03-08 15:19:00,
2013-03-08 09:24:00,53.3,53.0,-100.00,WSW,243,0.0,0.0,100,0.00,,,0.00,,2013-03-08 15:24:00,
2013-03-08 09:34:00,53.2,53.0,-100.00,SW,220,0.0,0.0,100,0.00,,,0.00,,2013-03-08 15:34:00,
2013-03-08 09:39:00,53.1,53.0,-100.00,SW,220,0.0,0.0,100,0.00,,,0.00,,2013-03-08 15:39:00,
2013-03-08 09:49:00,53.1,53.0,-100.00,SW,220,0.0,0.0,100,0.00,,,0.00,,2013-03-08 15:49:00,
2013-03-08 09:54:00,53.2,53.0,-100.00,SW,220,0.0,0.0,100,0.00,,,0.00,,2013-03-08 15:54:00,
2013-03-08 09:59:00,53.1,52.0,-100.00,SW,220,0.0,0.0,98,0.00,,,0.00,,2013-03-08 15:59:00,
2013-03-08 10:09:00,53.1,53.0,-100.00,SW,220,0.0,0.0,100,0.00,,,0.00,,2013-03-08 16:09:00,
2013-03-08 10:19:00,53.1,52.0,-100.00,SW,220,0.0,0.0,98,0.00,,,0.00,,2013-03-08 16:19:00,
2013-03-08 10:29:00,53.1,51.0,-100.00,SW,220,0.0,0.0,95,0.00,,,0.00,,2013-03-08 16:29:00,
2013-03-08 10:34:00,53.1,50.0,-100.00,SW,220,0.0,0.0,92,0.00,,,0.00,,2013-03-08 16:34:00,
2013-03-08 10:44:00,53.2,49.0,-100.00,SW,220,0.0,0.0,86,0.00,,,0.00,,2013-03-08 16:44:00,
2013-03-08 10:49:00,53.2,48.0,-100.00,SW,220,0.0,0.0,84,0.00,,,0.00,,2013-03-08 16:49:00,
2013-03-08 10:54:00,53.3,48.0,-100.00,SW,220,0.0,0.0,84,0.00,,,0.00,,2013-03-08 16:54:00,
2013-03-08 10:59:00,53.3,48.0,-100.00,West,265,0.0,0.0,83,0.00,,,0.00,,2013-03-08 16:59:00,
2013-03-08 11:04:00,53.3,48.0,-100.00,West,265,0.0,0.0,83,0.00,,,0.00,,2013-03-08 17:04:00,
2013-03-08 11:09:00,53.5,46.0,-100.00,West,265,0.0,0.0,78,0.00,,,0.00,,2013-03-08 17:09:00,
2013-03-08 11:14:00,53.5,45.0,-100.00,West,262,0.0,0.0,75,0.00,,,0.00,,2013-03-08 17:14:00,
2013-03-08 11:19:00,53.5,42.0,-100.00,WSW,243,0.0,0.0,66,0.00,,,0.00,,2013-03-08 17:19:00,
2013-03-08 11:29:00,53.6,40.0,-100.00,West,265,0.0,0.0,60,0.00,,,0.00,,2013-03-08 17:29:00,
2013-03-08 11:34:00,53.7,41.0,-100.00,West,265,0.0,0.0,64,0.03,,,0.03,,2013-03-08 17:34:00,
2013-03-08 11:39:00,53.7,41.0,-100.00,WSW,243,0.0,0.0,64,0.03,,,0.03,,2013-03-08 17:39:00,
2013-03-08 11:49:00,53.7,40.0,-100.00,WSW,243,0.0,0.0,61,0.03,,,0.03,,2013-03-08 17:49:00,
2013-03-08 11:59:00,53.7,41.0,-100.00,West,262,0.0,0.0,63,0.03,,,0.03,,2013-03-08 17:59:00,
2013-03-08 12:04:00,53.8,41.0,-100.00,West,265,0.0,0.0,63,0.03,,,0.03,,2013-03-08 18:04:00,
2013-03-08 12:09:00,53.8,40.0,-100.00,West,265,0.0,0.0,61,0.03,,,0.03,,2013-03-08 18:09:00,
2013-03-08 12:19:00,53.9,37.0,-100.00,West,265,0.0,0.0,53,0.03,,,0.03,,2013-03-08 18:19:00,
2013-03-08 12:24:00,55.0,37.0,-100.00,West,265,0.0,0.0,52,0.03,,,0.03,,2013-03-08 18:24:00,
2013-03-08 12:34:00,55.1,36.0,-100.00,West,265,0.0,0.0,49,0.00,,,0.03,,2013-03-08 18:34:00,
2013-03-08 12:44:00,55.4,35.0,-100.00,West,265,0.0,0.0,47,0.00,,,0.03,,2013-03-08 18:44:00,
2013-03-08 12:49:00,55.5,33.0,-100.00,West,265,0.0,0.0,43,0.00,,,0.03,,2013-03-08 18:49:00,
2013-03-08 12:54:00,55.5,28.0,-100.00,West,265,0.0,0.0,36,0.00,,,0.03,,2013-03-08 18:54:00,
2013-03-08 13:04:00,55.6,22.0,-100.00,WSW,251,0.0,0.0,27,0.00,,,0.03,,2013-03-08 19:04:00,
2013-03-08 13:09:00,55.8,19.0,-100.00,SW,223,0.0,0.0,24,0.00,,,0.03,,2013-03-08 19:09:00,
2013-03-08 13:14:00,55.8,21.0,-100.00,SW,229,0.0,0.0,26,0.00,,,0.03,,2013-03-08 19:14:00,
2013-03-08 13:24:00,55.9,23.0,-100.00,WSW,240,0.0,0.0,28,0.00,,,0.03,,2013-03-08 19:24:00,
2013-03-08 13:32:00,57.0,22.0,-100.00,WSW,243,0.0,0.0,26,0.00,,,0.03,,2013-03-08 19:32:00,
2013-03-08 13:42:00,57.3,21.0,-100.00,WSW,243,0.0,0.0,25,0.00,,,0.03,,2013-03-08 19:42:00,
2013-03-08 13:47:00,57.3,22.0,-100.00,West,265,0.0,0.0,26,0.00,,,0.03,,2013-03-08 19:47:00,
2013-03-08 13:52:00,57.4,21.0,-100.00,West,265,0.0,0.0,25,0.00,,,0.03,,2013-03-08 19:52:00,
2013-03-08 13:57:00,57.3,19.0,-100.00,West,265,0.0,0.0,23,0.00,,,0.03,,2013-03-08 19:57:00,
2013-03-08 14:04:00,57.5,21.0,-100.00,West,265,0.0,0.0,25,0.00,,,0.03,,2013-03-08 20:04:00,
2013-03-08 14:09:00,57.5,21.0,-100.00,West,265,0.0,0.0,24,0.00,,,0.03,,2013-03-08 20:09:00,
2013-03-08 14:19:00,57.5,17.0,-100.00,WSW,243,0.0,0.0,21,0.00,,,0.03,,2013-03-08 20:19:00,
2013-03-08 14:24:00,57.5,20.0,-100.00,WSW,243,0.0,0.0,23,0.00,,,0.03,,2013-03-08 20:24:00,
2013-03-08 14:29:00,57.5,21.0,-100.00,WSW,243,0.0,0.0,25,0.00,,,0.03,,2013-03-08 20:29:00,
2013-03-08 14:34:00,57.6,22.0,-100.00,WSW,243,0.0,0.0,26,0.00,,,0.03,,2013-03-08 20:34:00,
2013-03-08 14:44:00,57.6,22.0,-100.00,WSW,243,0.0,0.0,25,0.00,,,0.03,,2013-03-08 20:44:00,
2013-03-08 14:49:00,57.6,23.0,-100.00,WSW,243,0.0,0.0,27,0.00,,,0.03,,2013-03-08 20:49:00,
2013-03-08 14:59:00,57.7,20.0,-100.00,WSW,243,0.0,0.0,23,0.00,,,0.03,,2013-03-08 20:59:00,
2013-03-08 15:04:00,57.8,19.0,-100.00,WSW,243,0.0,0.0,22,0.00,,,0.03,,2013-03-08 21:04:00,
2013-03-08 15:09:00,57.8,17.0,-100.00,SW,234,0.0,0.0,20,0.00,,,0.03,,2013-03-08 21:09:00,
2013-03-08 15:14:00,57.9,13.0,-100.00,WSW,243,0.0,0.0,17,0.00,,,0.03,,2013-03-08 21:14:00,
2013-03-08 15:19:00,57.9,7.0,-100.00,SW,220,0.0,0.0,13,0.00,,,0.03,,2013-03-08 21:19:00,
2013-03-08 15:24:00,57.9,3.0,-100.00,SW,232,0.0,0.0,11,0.00,,,0.03,,2013-03-08 21:24:00,
2013-03-08 15:29:00,57.9,1.0,-100.00,SW,220,0.0,0.0,10,0.00,,,0.03,,2013-03-08 21:29:00,
2013-03-08 15:34:00,58.0,3.0,-100.00,WSW,243,0.0,0.0,11,0.00,,,0.03,,2013-03-08 21:34:00,
2013-03-08 15:39:00,58.0,3.0,-100.00,SW,220,0.0,0.0,11,0.00,,,0.03,,2013-03-08 21:39:00,
2013-03-08 15:44:00,58.0,3.0,-100.00,SW,220,0.0,0.0,11,0.00,,,0.03,,2013-03-08 21:44:00,
2013-03-08 15:49:00,58.0,3.0,-100.00,WSW,243,0.0,0.0,11,0.00,,,0.03,,2013-03-08 21:49:00,
2013-03-08 15:54:00,58.0,-2.0,-100.00,WSW,243,0.0,0.0,8,0.00,,,0.03,,2013-03-08 21:54:00,
2013-03-08 15:59:00,58.0,-8.0,-100.00,West,265,0.0,0.0,6,0.00,,,0.03,,2013-03-08 21:59:00,
2013-03-08 16:04:00,58.0,-8.0,-100.00,West,265,0.0,0.0,6,0.00,,,0.03,,2013-03-08 22:04:00,
2013-03-08 16:09:00,58.0,-12.0,-100.00,West,265,0.0,0.0,5,0.00,,,0.03,,2013-03-08 22:09:00,
2013-03-08 16:19:00,58.1,-42.0,-100.00,West,265,0.0,0.0,1,0.00,,,0.03,,2013-03-08 22:19:00,
2013-03-08 16:24:00,58.1,-99.9,-100.00,West,265,0.0,0.0,0,0.00,,,0.03,,2013-03-08 22:24:00,
2013-03-08 16:29:00,58.2,-41.0,-100.00,West,265,0.0,0.0,1,0.00,,,0.03,,2013-03-08 22:29:00,
2013-03-08 16:39:00,58.3,-99.9,-100.00,West,265,0.0,0.0,0,0.00,,,0.03,,2013-03-08 22:39:00,
2013-03-08 16:44:00,58.4,-99.9,-100.00,WSW,243,0.0,0.0,0,0.00,,,0.03,,2013-03-08 22:44:00,
2013-03-08 16:49:00,58.5,-99.9,-100.00,WSW,243,0.0,0.0,0,0.00,,,0.03,,2013-03-08 22:49:00,
2013-03-08 16:54:00,58.5,-99.9,-100.00,WSW,243,0.0,0.0,0,0.00,,,0.03,,2013-03-08 22:54:00,
2013-03-08 16:59:00,58.5,-99.9,-100.00,SW,229,0.0,0.0,0,0.00,,,0.03,,2013-03-08 22:59:00,
2013-03-08 17:04:00,58.5,-99.9,-100.00,SW,220,0.0,0.0,0,0.00,,,0.03,,2013-03-08 23:04:00,
2013-03-08 17:09:00,58.6,-99.9,-100.00,SW,220,0.0,0.0,0,0.00,,,0.03,,2013-03-08 23:09:00,
2013-03-08 17:14:00,58.6,-99.9,-100.00,SW,220,0.0,0.0,0,0.00,,,0.03,,2013-03-08 23:14:00,
2013-03-08 17:19:00,58.6,-99.9,-100.00,SW,220,0.0,0.0,0,0.00,,,0.03,,2013-03-08 23:19:00,
2013-03-08 17:24:00,58.6,-99.9,-100.00,SW,220,0.0,0.0,0,0.00,,,0.03,,2013-03-08 23:24:00,
2013-03-08 17:29:00,58.7,-99.9,-100.00,SW,220,0.0,0.0,0,0.00,,,0.03,,2013-03-08 23:29:00,
2013-03-08 17:39:00,58.8,-99.9,-100.00,SW,220,0.0,0.0,0,0.00,,,0.03,,2013-03-08 23:39:00,
2013-03-08 17:44:00,60.0,-40.0,-100.00,SW,220,0.0,0.0,1,0.00,,,0.03,,2013-03-08 23:44:00,
2013-03-08 17:49:00,60.0,-11.0,-100.00,SW,220,0.0,0.0,5,0.00,,,0.03,,2013-03-08 23:49:00,
2013-03-08 17:59:00,60.0,1.0,-100.00,SW,220,0.0,0.0,9,0.00,,,0.03,,2013-03-08 23:59:00,
2013-03-08 18:04:00,60.0,7.0,-100.00,SW,220,0.0,0.0,12,0.00,,,0.03,,2013-03-09 00:04:00,
2013-03-08 18:09:00,58.9,16.0,-100.00,SW,220,0.0,0.0,19,0.00,,,0.03,,2013-03-09 00:09:00,
2013-03-08 18:14:00,58.8,21.0,-100.00,SW,220,0.0,0.0,23,0.00,,,0.03,,2013-03-09 00:14:00,
2013-03-08 18:19:00,58.8,23.0,-100.00,SW,220,0.0,0.0,25,0.00,,,0.03,,2013-03-09 00:19:00,
2013-03-08 18:24:00,58.8,24.0,-100.00,SW,220,0.0,0.0,26,0.00,,,0.03,,2013-03-09 00:24:00,
2013-03-08 18:29:00,58.8,24.0,-100.00,SW,220,0.0,0.0,26,0.00,,,0.03,,2013-03-09 00:29:00,
2013-03-08 18:34:00,58.8,23.0,-100.00,SW,220,0.0,0.0,25,0.00,,,0.03,,2013-03-09 00:34:00,
2013-03-08 18:39:00,58.8,25.0,-100.00,SW,220,0.0,0.0,28,0.00,,,0.03,,2013-03-09 00:39:00,
2013-03-08 18:44:00,58.8,24.0,-100.00,SW,220,0.0,0.0,27,0.00,,,0.03,,2013-03-09 00:44:00,
2013-03-08 18:49:00,58.8,28.0,-100.00,SW,220,0.0,0.0,31,0.00,,,0.03,,2013-03-09 00:49:00,
2013-03-08 18:54:00,58.7,28.0,-100.00,SW,220,0.0,0.0,31,0.00,,,0.03,,2013-03-09 00:54:00,
2013-03-08 18:59:00,58.6,27.0,-100.00,SW,220,0.0,0.0,30,0.00,,,0.03,,2013-03-09 00:59:00,
2013-03-08 19:04:00,58.6,26.0,-100.00,SW,220,0.0,0.0,29,0.00,,,0.03,,2013-03-09 01:04:00,
2013-03-08 19:09:00,58.5,27.0,-100.00,SW,220,0.0,0.0,31,0.00,,,0.03,,2013-03-09 01:09:00,
2013-03-08 19:14:00,58.5,32.0,-100.00,SW,220,0.0,0.0,37,0.00,,,0.03,,2013-03-09 01:14:00,
2013-03-08 19:19:00,58.5,35.0,-100.00,SW,220,0.0,0.0,42,0.00,,,0.03,,2013-03-09 01:19:00,
2013-03-08 19:24:00,58.5,38.0,-100.00,SW,220,0.0,0.0,48,0.00,,,0.03,,2013-03-09 01:24:00,
2013-03-08 19:29:00,58.5,38.0,-100.00,SW,220,0.0,0.0,47,0.00,,,0.03,,2013-03-09 01:29:00,
2013-03-08 19:34:00,58.5,36.0,-100.00,SW,220,0.0,0.0,43,0.00,,,0.03,,2013-03-09 01:34:00,
2013-03-08 19:39:00,58.5,38.0,-100.00,SW,220,0.0,0.0,47,0.00,,,0.03,,2013-03-09 01:39:00,
2013-03-08 19:44:00,58.4,35.0,-100.00,SW,220,0.0,0.0,43,0.00,,,0.03,,2013-03-09 01:44:00,
2013-03-08 19:49:00,58.3,34.0,-100.00,SW,220,0.0,0.0,40,0.00,,,0.03,,2013-03-09 01:49:00,
2013-03-08 19:54:00,58.3,35.0,-100.00,SW,220,0.0,0.0,43,0.00,,,0.03,,2013-03-09 01:54:00,
2013-03-08 19:59:00,58.3,34.0,-100.00,SW,220,0.0,0.0,41,0.00,,,0.03,,2013-03-09 01:59:00,
2013-03-08 20:04:00,58.3,33.0,-100.00,SW,220,0.0,0.0,39,0.00,,,0.03,,2013-03-09 02:04:00,
2013-03-08 20:09:00,58.2,35.0,-100.00,SW,220,0.0,0.0,42,0.00,,,0.03,,2013-03-09 02:09:00,
2013-03-08 20:14:00,58.1,36.0,-100.00,SW,220,0.0,0.0,44,0.00,,,0.03,,2013-03-09 02:14:00,
2013-03-08 20:19:00,58.2,37.0,-100.00,SW,220,0.0,0.0,46,0.00,,,0.03,,2013-03-09 02:19:00,
2013-03-08 20:24:00,58.2,38.0,-100.00,SW,220,0.0,0.0,48,0.00,,,0.03,,2013-03-09 02:24:00,
2013-03-08 20:29:00,58.3,39.0,-100.00,SW,234,0.0,0.0,50,0.00,,,0.03,,2013-03-09 02:29:00,
2013-03-08 20:34:00,58.3,41.0,-100.00,SW,220,0.0,0.0,53,0.00,,,0.03,,2013-03-09 02:34:00,
2013-03-08 20:39:00,58.5,40.0,-100.00,WSW,243,0.0,0.0,51,0.00,,,0.03,,2013-03-09 02:39:00,
2013-03-08 20:44:00,58.5,40.0,-100.00,SW,229,0.0,0.0,51,0.00,,,0.03,,2013-03-09 02:44:00,
2013-03-08 20:49:00,58.6,42.0,-100.00,WSW,243,0.0,0.0,54,0.00,,,0.03,,2013-03-09 02:49:00,
2013-03-08 20:54:00,58.6,42.0,-100.00,WSW,246,0.0,0.0,54,0.00,,,0.03,,2013-03-09 02:54:00,
2013-03-08 20:59:00,58.7,43.0,-100.00,WSW,243,0.0,0.0,56,0.00,,,0.03,,2013-03-09 02:59:00,
2013-03-08 21:04:00,58.8,43.0,-100.00,WSW,243,0.0,0.0,57,0.00,,,0.03,,2013-03-09 03:04:00,
2013-03-08 21:09:00,58.8,44.0,-100.00,West,262,0.0,0.0,59,0.00,,,0.03,,2013-03-09 03:09:00,
2013-03-08 21:14:00,58.8,45.0,-100.00,SW,226,0.0,0.0,62,0.00,,,0.03,,2013-03-09 03:14:00,
2013-03-08 21:19:00,58.8,45.0,-100.00,West,265,0.0,0.0,62,0.00,,,0.03,,2013-03-09 03:19:00,
2013-03-08 21:24:00,58.8,47.0,-100.00,WSW,243,0.0,0.0,65,0.00,,,0.03,,2013-03-09 03:24:00,
2013-03-08 21:29:00,58.8,47.0,-100.00,WSW,243,0.0,0.0,67,0.00,,,0.03,,2013-03-09 03:29:00,
2013-03-08 21:34:00,58.8,48.0,-100.00,WSW,243,0.0,0.0,69,0.00,,,0.03,,2013-03-09 03:34:00,
2013-03-08 21:39:00,58.9,49.0,-100.00,SW,234,0.0,0.0,70,0.00,,,0.03,,2013-03-09 03:39:00,
2013-03-08 21:44:00,58.8,49.0,-100.00,WSW,248,0.0,0.0,72,0.00,,,0.03,,2013-03-09 03:44:00,
2013-03-08 21:49:00,58.8,50.0,-100.00,WSW,248,0.0,0.0,74,0.00,,,0.03,,2013-03-09 03:49:00,
2013-03-08 21:54:00,58.8,50.0,-100.00,West,262,0.0,0.0,75,0.00,,,0.03,,2013-03-09 03:54:00,
2013-03-08 21:59:00,58.8,51.0,-100.00,WSW,257,0.0,0.0,77,0.00,,,0.03,,2013-03-09 03:59:00,
2013-03-08 22:04:00,58.8,52.0,-100.00,WSW,257,0.0,0.0,79,0.00,,,0.03,,2013-03-09 04:04:00,
2013-03-08 22:09:00,58.8,52.0,-100.00,West,265,0.0,0.0,80,0.00,,,0.03,,2013-03-09 04:09:00,
2013-03-08 22:14:00,58.7,52.0,-100.00,WSW,249,0.0,0.0,81,0.00,,,0.03,,2013-03-09 04:14:00,
2013-03-08 22:19:00,58.8,52.0,-100.00,West,259,0.0,0.0,81,0.00,,,0.03,,2013-03-09 04:19:00,
2013-03-08 22:24:00,58.7,53.0,-100.00,WSW,254,0.0,0.0,82,0.00,,,0.03,,2013-03-09 04:24:00,
2013-03-08 22:29:00,58.8,53.0,-100.00,WSW,243,0.0,0.0,84,0.00,,,0.03,,2013-03-09 04:29:00,
2013-03-08 22:34:00,58.7,54.0,-100.00,WSW,251,0.0,0.0,85,0.00,,,0.03,,2013-03-09 04:34:00,
2013-03-08 22:39:00,58.7,54.0,-100.00,West,265,0.0,0.0,85,0.00,,,0.03,,2013-03-09 04:39:00,
2013-03-08 22:44:00,58.6,54.0,-100.00,WSW,245,0.0,0.0,87,0.00,,,0.03,,2013-03-09 04:44:00,
2013-03-08 22:49:00,58.6,55.0,-100.00,West,265,0.0,0.0,88,0.00,,,0.03,,2013-03-09 04:49:00,
2013-03-08 22:54:00,58.5,54.0,-100.00,West,265,0.0,0.0,87,0.00,,,0.03,,2013-03-09 04:54:00,
2013-03-08 22:59:00,58.5,54.0,-100.00,WSW,257,0.0,0.0,88,0.00,,,0.03,,2013-03-09 04:59:00,
2013-03-08 23:04:00,58.5,55.0,-100.00,West,262,0.0,0.0,89,0.00,,,0.03,,2013-03-09 05:04:00,
2013-03-08 23:09:00,58.5,55.0,-100.00,WSW,254,0.0,0.0,90,0.00,,,0.03,,2013-03-09 05:09:00,
2013-03-08 23:14:00,58.5,55.0,-100.00,West,265,0.0,0.0,91,0.00,,,0.03,,2013-03-09 05:14:00,
2013-03-08 23:19:00,58.4,55.0,-100.00,West,265,0.0,0.0,91,0.00,,,0.03,,2013-03-09 05:19:00,
2013-03-08 23:24:00,58.4,55.0,-100.00,West,265,0.0,0.0,91,0.00,,,0.03,,2013-03-09 05:24:00,
2013-03-08 23:29:00,58.4,55.0,-100.00,West,265,0.0,0.0,91,0.00,,,0.03,,2013-03-09 05:29:00,
2013-03-08 23:34:00,58.5,56.0,-100.00,West,265,0.0,0.0,92,0.00,,,0.03,,2013-03-09 05:34:00,
2013-03-08 23:39:00,58.5,56.0,-100.00,West,260,0.0,0.0,93,0.00,,,0.03,,2013-03-09 05:39:00,
2013-03-08 23:44:00,58.5,56.0,-100.00,West,265,0.0,0.0,94,0.00,,,0.03,,2013-03-09 05:44:00,
2013-03-08 23:49:00,58.5,56.0,-100.00,West,262,0.0,0.0,94,0.00,,,0.03,,2013-03-09 05:49:00,
2013-03-08 23:54:00,58.5,57.0,-100.00,West,265,0.0,0.0,95,0.00,,,0.03,,2013-03-09 05:54:00,
2013-03-08 23:59:00,58.5,57.0,-100.00,West,265,0.0,0.0,96,0.00,,,0.03,,2013-03-09 05:59:00,